sat.trackr.live / text

‹ back to catalog

2023-085AL

NORAD 57038 · 2023-085AL

PAYLOAD ACTIVE UNKNOWN

§ Identity

Operator
Country
PRC
Launch date
2023-06-15
Launch site
TAISC
Launch vehicle
Mass (kg)
RCS (m²)

External: N2YO · Heavens-Above · Gunter

§ Orbital elements

Epoch: 2026-09-21T21:58:55.874208Z

Period
93.66 min
Inclination
97.5018°
Eccentricity
0.0007370
Mean motion
15.37456947 rev/d
Perigee alt
448.6 km
Apogee alt
458.7 km
Semi-major
6,831.8 km
B*
3.1222e-4
RAAN
19.1166°
Arg perigee
95.2006°
Mean anomaly
265.0079°
Rev number
18,160

§ Raw data

2023-085AL1 57038U 23085AL  26264.91592447  .00011397  00000+0  31222-3 0  99952 57038  97.5018  19.1166 0007370  95.2006 265.0079 15.37456947181604

JSON: /api/v1/satellites/57038 · /tle

For live sub-satellite position, see the globe view (requires WebGL).

§ Visibility from observer

Set your observer location to see the next 7 days of passes ≥ 10°. The values pass through the URL so the page stays shareable.

No JS? Fill the form by hand. The geolocation button needs JavaScript.